| time (UTC) | temp F | wind direction | speed MPH | gust MPH | rain 1hr in | rain 24hr in | rain mn in | humidity % | barometer mb |
| 20260507175845 | 57 | 41 | 0.0 | 1.0 | 0.00 | 0.01 | 0.01 | 44 | 1014.3 |
| 20260507174840 | 56 | 203 | 5.0 | 6.0 | 0.00 | 0.01 | 0.01 | 42 | 1014.2 |
| 20260507173840 | 59 | 28 | 1.0 | 2.0 | 0.00 | 0.01 | 0.01 | 43 | 1014.3 |
| 20260507172839 | 59 | 295 | 0.0 | 0.0 | 0.00 | 0.01 | 0.01 | 41 | 1014.3 |
| 20260507171837 | 58 | 323 | 1.0 | 2.0 | 0.00 | 0.01 | 0.01 | 45 | 1014.4 |
| 20260507170837 | 59 | 353 | 1.0 | 1.0 | 0.00 | 0.01 | 0.01 | 43 | 1014.4 |
| 20260507165835 | 58 | 283 | 4.0 | 7.0 | 0.00 | 0.01 | 0.01 | 47 | 1014.3 |
| 20260507164833 | 57 | 327 | 1.0 | 5.0 | 0.00 | 0.01 | 0.01 | 56 | 1014.6 |
| 20260507163833 | 55 | 38 | 1.0 | 2.0 | 0.00 | 0.01 | 0.01 | 63 | 1014.9 |
| 20260507162833 | 56 | 8 | 0.0 | 1.0 | 0.00 | 0.01 | 0.01 | 60 | 1015.0 |
| 20260507161831 | 55 | 355 | 0.0 | 0.0 | 0.00 | 0.01 | 0.01 | 63 | 1015.3 |
| 20260507160830 | 55 | 347 | 0.0 | 0.0 | 0.00 | 0.01 | 0.01 | 59 | 1015.2 |
| 20260507155828 | 55 | 299 | 0.0 | 0.0 | 0.00 | 0.01 | 0.01 | 61 | 1015.3 |
| 20260507154827 | 57 | 9 | 0.0 | 0.0 | 0.00 | 0.01 | 0.01 | 58 | 1015.1 |
| 20260507153827 | 56 | 346 | 0.0 | 1.0 | 0.00 | 0.01 | 0.01 | 59 | 1015.1 |
| 20260507152826 | 56 | 313 | 0.0 | 0.0 | 0.00 | 0.01 | 0.01 | 59 | 1015.1 |
| 20260507151824 | 55 | 4 | 0.0 | 0.0 | 0.00 | 0.01 | 0.01 | 60 | 1015.3 |
| 20260507150824 | 55 | 352 | 0.0 | 0.0 | 0.00 | 0.01 | 0.01 | 63 | 1015.4 |
| 20260507145822 | 55 | 307 | 0.0 | 0.0 | 0.00 | 0.01 | 0.01 | 60 | 1015.2 |
| 20260507144822 | 55 | 340 | 0.0 | 0.0 | 0.00 | 0.01 | 0.01 | 60 | 1015.3 |
| 20260507143821 | 55 | 71 | 0.0 | 0.0 | 0.00 | 0.01 | 0.01 | 62 | 1015.3 |
| 20260507142821 | 56 | 352 | 0.0 | 0.0 | 0.00 | 0.01 | 0.01 | 57 | 1015.3 |
| 20260507141820 | 57 | 244 | 0.0 | 0.0 | 0.00 | 0.01 | 0.01 | 57 | 1015.3 |
| 20260507140819 | 55 | 62 | 0.0 | 0.0 | 0.00 | 0.01 | 0.01 | 60 | 1015.2 |
| 20260507135814 | 56 | 36 | 0.0 | 0.0 | 0.00 | 0.01 | 0.01 | 58 | 1015.3 |
| 20260507134813 | 56 | 304 | 0.0 | 1.0 | 0.00 | 0.01 | 0.01 | 60 | 1015.3 |
| 20260507133811 | 54 | 301 | 0.0 | 0.0 | 0.00 | 0.01 | 0.01 | 67 | 1015.5 |
| 20260507132811 | 54 | 359 | 0.0 | 0.0 | 0.00 | 0.01 | 0.01 | 65 | 1015.5 |
| 20260507131811 | 55 | 325 | 0.0 | 0.0 | 0.00 | 0.01 | 0.01 | 65 | 1015.9 |
| 20260507130810 | 53 | 40 | 0.0 | 0.0 | 0.00 | 0.01 | 0.01 | 67 | 1016.0 |
| 20260507125806 | 52 | 296 | 0.0 | 1.0 | 0.00 | 0.01 | 0.01 | 70 | 1015.8 |
| 20260507124806 | 51 | 34 | 0.0 | 0.0 | 0.00 | 0.01 | 0.01 | 73 | 1015.7 |
| 20260507123801 | 50 | 22 | 0.0 | 0.0 | 0.00 | 0.01 | 0.01 | 79 | 1016.0 |
| 20260507122800 | 49 | 36 | 0.0 | 0.0 | 0.00 | 0.01 | 0.01 | 78 | 1016.0 |
| 20260507121757 | 48 | 11 | 0.0 | 0.0 | 0.00 | 0.01 | 0.01 | 80 | 1016.0 |
| 20260507120756 | 48 | 320 | 0.0 | 0.0 | 0.00 | 0.01 | 0.01 | 81 | 1016.3 |
| 20260507115755 | 45 | 348 | 0.0 | 0.0 | 0.00 | 0.01 | 0.01 | 92 | 1016.1 |
| 20260507114752 | 44 | 31 | 0.0 | 0.0 | 0.00 | 0.01 | 0.01 | 98 | 1016.2 |
| 20260507113747 | 44 | 29 | 0.0 | 0.0 | 0.00 | 0.01 | 0.01 | 98 | 1016.2 |
| 20260507112747 | 43 | 34 | 0.0 | 0.0 | 0.00 | 0.01 | 0.01 | 98 | 1016.1 |
| 20260507111742 | 43 | 28 | 0.0 | 0.0 | 0.00 | 0.01 | 0.01 | 98 | 1016.2 |
| 20260507110740 | 42 | 27 | 0.0 | 0.0 | 0.00 | 0.01 | 0.01 | 98 | 1016.1 |
| 20260507105740 | 41 | 26 | 0.0 | 0.0 | 0.00 | 0.01 | 0.01 | 98 | 1016.0 |
| 20260507104739 | 42 | 20 | 0.0 | 0.0 | 0.00 | 0.01 | 0.01 | 98 | 1016.1 |
| 20260507103737 | 42 | 8 | 0.0 | 0.0 | 0.00 | 0.01 | 0.01 | 98 | 1016.3 |
| 20260507102736 | 42 | 7 | 0.0 | 0.0 | 0.00 | 0.01 | 0.01 | 98 | 1016.3 |
| 20260507101735 | 42 | 348 | 0.0 | 0.0 | 0.00 | 0.01 | 0.01 | 98 | 1016.4 |
| 20260507100734 | 42 | 3 | 0.0 | 0.0 | 0.00 | 0.01 | 0.01 | 98 | 1016.2 |
| 20260507095729 | 42 | 3 | 0.0 | 0.0 | 0.00 | 0.01 | 0.01 | 98 | 1015.8 |
| 20260507094729 | 42 | 352 | 0.0 | 0.0 | 0.00 | 0.01 | 0.01 | 98 | 1015.9 |
| 20260507093728 | 42 | 15 | 0.0 | 0.0 | 0.00 | 0.01 | 0.01 | 97 | 1016.0 |
| 20260507092724 | 43 | 21 | 0.0 | 0.0 | 0.00 | 0.01 | 0.01 | 97 | 1015.9 |
| 20260507091722 | 43 | 9 | 0.0 | 0.0 | 0.00 | 0.01 | 0.01 | 97 | 1015.5 |
| 20260507090719 | 44 | 10 | 0.0 | 0.0 | 0.00 | 0.01 | 0.01 | 97 | 1015.8 |
| 20260507085719 | 44 | 9 | 0.0 | 0.0 | 0.00 | 0.01 | 0.01 | 97 | 1015.3 |
| 20260507084719 | 45 | 18 | 0.0 | 0.0 | 0.00 | 0.01 | 0.01 | 96 | 1015.9 |
| 20260507083718 | 45 | 335 | 0.0 | 0.0 | 0.00 | 0.01 | 0.01 | 96 | 1016.0 |
| 20260507082716 | 45 | 336 | 0.0 | 0.0 | 0.00 | 0.01 | 0.01 | 96 | 1016.0 |
| 20260507081714 | 45 | 330 | 0.0 | 0.0 | 0.00 | 0.01 | 0.01 | 95 | 1015.9 |
| 20260507080713 | 45 | 330 | 0.0 | 0.0 | 0.00 | 0.01 | 0.01 | 95 | 1015.7 |
| 20260507075710 | 45 | 296 | 0.0 | 0.0 | 0.00 | 0.01 | 0.01 | 94 | 1015.0 |
| 20260507074709 | 46 | 332 | 0.0 | 0.0 | 0.00 | 0.01 | 0.01 | 94 | 1014.9 |
| 20260507073704 | 46 | 337 | 0.0 | 0.0 | 0.00 | 0.01 | 0.01 | 93 | 1015.0 |
| 20260507072704 | 46 | 246 | 0.0 | 0.0 | 0.00 | 0.01 | 0.01 | 94 | 1015.2 |
| 20260507071659 | 46 | 242 | 0.0 | 0.0 | 0.00 | 0.01 | 0.01 | 93 | 1015.3 |
| 20260507070659 | 46 | 11 | 0.0 | 0.0 | 0.00 | 0.01 | 0.01 | 94 | 1015.0 |
| 20260507065657 | 46 | 347 | 0.0 | 0.0 | 0.00 | 0.01 | 0.01 | 95 | 1014.7 |
| 20260507064657 | 46 | 17 | 0.0 | 0.0 | 0.00 | 0.01 | 0.01 | 95 | 1014.8 |
| 20260507063653 | 46 | 351 | 0.0 | 0.0 | 0.00 | 0.01 | 0.01 | 96 | 1014.5 |
| 20260507062652 | 46 | 350 | 0.0 | 0.0 | 0.00 | 0.01 | 0.01 | 97 | 1014.6 |
| 20260507061648 | 46 | 6 | 0.0 | 1.0 | 0.00 | 0.01 | 0.01 | 97 | 1014.6 |
| 20260507060643 | 47 | 37 | 0.0 | 0.0 | 0.00 | 0.01 | 0.01 | 98 | 1014.3 |
| 20260507055641 | 47 | 29 | 0.0 | 0.0 | 0.00 | 0.01 | 0.01 | 97 | 1014.3 |
| 20260507054639 | 48 | 353 | 0.0 | 0.0 | 0.00 | 0.01 | 0.01 | 98 | 1014.4 |
| 20260507053634 | 48 | 37 | 1.0 | 1.0 | 0.00 | 0.01 | 0.01 | 97 | 1014.1 |
| 20260507052630 | 48 | 346 | 0.0 | 0.0 | 0.00 | 0.01 | 0.01 | 97 | 1014.2 |
| 20260507051630 | 48 | 314 | 0.0 | 0.0 | 0.00 | 0.01 | 0.01 | 97 | 1014.0 |
| 20260507050629 | 48 | 212 | 0.0 | 0.0 | 0.00 | 0.01 | 0.01 | 97 | 1014.1 |
| 20260507045629 | 48 | 289 | 0.0 | 0.0 | 0.00 | 0.01 | 0.01 | 97 | 1014.1 |
| 20260507044628 | 48 | 337 | 0.0 | 0.0 | 0.00 | 0.01 | 0.01 | 96 | 1014.0 |
| 20260507043626 | 49 | 354 | 0.0 | 0.0 | 0.00 | 0.01 | 0.01 | 96 | 1013.9 |
| 20260507042626 | 49 | 355 | 0.0 | 0.0 | 0.00 | 0.01 | 0.01 | 96 | 1014.3 |
| 20260507041624 | 49 | 7 | 0.0 | 0.0 | 0.00 | 0.01 | 0.01 | 96 | 1014.2 |
| 20260507040624 | 49 | 346 | 0.0 | 1.0 | 0.07 | 0.01 | 0.01 | 96 | 1014.1 |
| 20260507035622 | 49 | 352 | 0.0 | 0.0 | 0.00 | 1.05 | 1.05 | 96 | 1014.1 |
| 20260507034621 | 50 | 26 | 1.0 | 2.0 | 0.05 | 1.05 | 1.05 | 96 | 1014.2 |
| 20260507033617 | 50 | 37 | 1.0 | 1.0 | 0.07 | 1.04 | 1.04 | 95 | 1014.0 |
| 20260507032616 | 50 | 341 | 2.0 | 2.0 | 0.00 | 1.03 | 1.03 | 95 | 1013.8 |
| 20260507031615 | 50 | 339 | 1.0 | 2.0 | 0.00 | 1.03 | 1.03 | 96 | 1013.4 |
| 20260507030614 | 51 | 334 | 1.0 | 1.0 | 0.00 | 1.03 | 1.03 | 97 | 1013.6 |
| 20260507025609 | 53 | 11 | 0.0 | 0.0 | 0.00 | 1.03 | 1.03 | 97 | 1013.6 |
| 20260507024604 | 53 | 11 | 0.0 | 0.0 | 0.00 | 1.03 | 1.03 | 98 | 1013.5 |
| 20260507023602 | 53 | 356 | 1.0 | 2.0 | 0.00 | 1.03 | 1.03 | 97 | 1013.5 |
| 20260507022557 | 53 | 354 | 0.0 | 0.0 | 0.05 | 1.03 | 1.03 | 98 | 1013.4 |
| 20260507021554 | 54 | 32 | 0.0 | 0.0 | 0.00 | 1.02 | 1.02 | 98 | 1013.2 |
| 20260507020549 | 54 | 340 | 1.0 | 2.0 | 0.07 | 1.02 | 1.02 | 98 | 1013.3 |
| 20260507015549 | 55 | 349 | 0.0 | 0.0 | 0.07 | 1.01 | 1.01 | 98 | 1013.2 |
| 20260507014549 | 55 | 9 | 0.0 | 0.0 | 0.00 | 1.00 | 1.00 | 98 | 1013.2 |
| 20260507013547 | 55 | 327 | 0.0 | 0.0 | 0.00 | 1.00 | 1.00 | 98 | 1013.2 |
| 20260507012542 | 56 | 344 | 0.0 | 0.0 | 0.00 | 1.00 | 1.00 | 98 | 1013.1 |
| 20260507011541 | 56 | 355 | 0.0 | 0.0 | 0.05 | 1.00 | 1.00 | 98 | 1013.2 |
| 20260507010538 | 57 | 355 | 0.0 | 0.0 | 0.00 | 0.99 | 0.99 | 98 | 1013.1 |
| 20260507005532 | 59 | 12 | 0.0 | 0.0 | 0.00 | 0.99 | 0.99 | 98 | 1012.9 |
| 20260507004531 | 59 | 12 | 0.0 | 0.0 | 0.00 | 0.99 | 0.99 | 98 | 1012.7 |
| 20260507003530 | 59 | 20 | 0.0 | 0.0 | 0.00 | 0.99 | 0.99 | 98 | 1012.8 |
| 20260507002528 | 59 | 22 | 0.0 | 0.0 | 0.00 | 0.99 | 0.99 | 98 | 1012.8 |
| 20260507001526 | 59 | 27 | 0.0 | 0.0 | 0.00 | 0.99 | 0.99 | 98 | 1012.7 |
| 20260507000526 | 59 | 44 | 0.0 | 0.0 | 0.00 | 0.99 | 0.99 | 98 | 1012.8 |
| 20260506235525 | 59 | 21 | 0.0 | 0.0 | 0.00 | 0.99 | 0.99 | 98 | 1012.6 |
| 20260506234524 | 59 | 281 | 0.0 | 0.0 | 0.07 | 0.99 | 0.99 | 98 | 1012.4 |
| 20260506233524 | 59 | 58 | 0.0 | 0.0 | 0.12 | 0.98 | 0.98 | 98 | 1012.4 |
| 20260506232523 | 59 | 20 | 0.0 | 0.0 | 0.05 | 0.96 | 0.96 | 98 | 1012.1 |
| 20260506231522 | 59 | 31 | 0.0 | 0.0 | 0.12 | 0.95 | 0.95 | 98 | 1012.1 |
| 20260506230521 | 59 | 22 | 0.0 | 0.0 | 0.12 | 0.93 | 0.93 | 97 | 1012.3 |
| 20260506225516 | 59 | 9 | 0.0 | 0.0 | 0.07 | 0.91 | 0.91 | 97 | 1012.4 |
| 20260506224515 | 59 | 349 | 0.0 | 0.0 | 0.05 | 0.90 | 0.90 | 97 | 1012.2 |
| 20260506223512 | 59 | 6 | 0.0 | 0.0 | 0.19 | 0.89 | 0.89 | 97 | 1012.4 |
| 20260506222511 | 59 | 234 | 0.0 | 0.0 | 0.12 | 0.86 | 0.86 | 97 | 1012.6 |
| 20260506221510 | 59 | 261 | 0.0 | 0.0 | 0.07 | 0.84 | 0.84 | 97 | 1012.4 |
| 20260506220508 | 60 | 260 | 0.0 | 0.0 | 0.12 | 0.83 | 0.83 | 97 | 1013.0 |
| 20260506215507 | 60 | 294 | 0.0 | 0.0 | 0.05 | 0.81 | 0.81 | 97 | 1012.9 |
| 20260506214505 | 60 | 357 | 0.0 | 0.0 | 0.12 | 0.80 | 0.80 | 97 | 1013.2 |
| 20260506213500 | 60 | 90 | 0.0 | 0.0 | 0.00 | 0.78 | 0.78 | 97 | 1013.2 |
| 20260506212459 | 60 | 10 | 0.0 | 0.0 | 0.19 | 0.78 | 0.78 | 97 | 1013.5 |
| 20260506211456 | 60 | 341 | 0.0 | 0.0 | 0.07 | 0.75 | 0.75 | 97 | 1013.3 |
| 20260506210456 | 60 | 357 | 0.0 | 0.0 | 0.05 | 0.74 | 0.74 | 97 | 1013.6 |
| 20260506205455 | 60 | 4 | 0.0 | 0.0 | 0.00 | 0.73 | 0.73 | 97 | 1013.5 |
| 20260506204455 | 60 | 10 | 0.0 | 0.0 | 0.00 | 0.73 | 0.73 | 97 | 1013.8 |
| 20260506203455 | 60 | 316 | 0.0 | 0.0 | 0.00 | 0.73 | 0.73 | 97 | 1013.7 |
| 20260506202455 | 60 | 321 | 0.0 | 0.0 | 0.00 | 0.73 | 0.73 | 97 | 1013.8 |
| 20260506201455 | 60 | 355 | 0.0 | 0.0 | 0.12 | 0.73 | 0.73 | 97 | 1013.5 |
| 20260506200454 | 60 | 216 | 0.0 | 0.0 | 0.07 | 0.71 | 0.71 | 97 | 1013.8 |
| 20260506195454 | 60 | 339 | 0.0 | 0.0 | 0.12 | 0.70 | 0.70 | 97 | 1013.9 |
| 20260506194448 | 60 | 253 | 0.0 | 0.0 | 0.05 | 0.68 | 0.68 | 97 | 1014.0 |
| 20260506193447 | 60 | 341 | 0.0 | 0.0 | 0.12 | 0.67 | 0.67 | 97 | 1014.1 |
| 20260506192447 | 60 | 34 | 0.0 | 0.0 | 0.07 | 0.65 | 0.65 | 97 | 1014.3 |
| 20260506191446 | 60 | 25 | 0.0 | 0.0 | 0.19 | 0.64 | 0.64 | 97 | 1014.3 |
| 20260506190445 | 60 | 8 | 0.0 | 0.0 | 0.12 | 0.62 | 0.62 | 97 | 1014.3 |
| 20260506185445 | 60 | 348 | 0.0 | 0.0 | 0.19 | 0.60 | 0.60 | 97 | 1014.4 |
| 20260506184445 | 60 | 357 | 0.0 | 0.0 | 0.05 | 0.57 | 0.57 | 97 | 1014.6 |
| 20260506183443 | 59 | 18 | 0.0 | 0.0 | 0.19 | 0.56 | 0.56 | 97 | 1014.6 |
| 20260506182438 | 59 | 30 | 0.0 | 0.0 | 0.12 | 0.53 | 0.53 | 97 | 1014.9 |
| 20260506181433 | 59 | 51 | 1.0 | 1.0 | 0.24 | 0.51 | 0.51 | 96 | 1015.0 |